Home > Weather > Thunder Bay > Past weeks

Flag for Canada Weather for the Past 2 Weeks in Thunder Bay, Ontario, Canada

Now
50 °F

Scattered clouds.


Feels Like: 46 °F
Forecast: 38 / 53 °F
Wind: 10 mph from Northeast

Location: Thunder Bay

Current Time: May 4, 2016 at 3:30:10 PM

Latest Report: May 4, 2016 at 2:00 PM


Visibility: 20 mi

Pressure: 29.99 "Hg

Humidity: 50%

Dew Point: 32 °F

Location of Thunder BayLocation

Historic Weather in Thunder Bay — Graph

°F

Thunder Bay Temperature Yesterday

Maximum temperature yesterday: 64 °F (at 2:00 PM)
Minimum temperature yesterday: 37 °F (at 3:00 AM)
Average temperature yesterday: 49 °F

High & Low Weather Summary for the Past Weeks

 TemperatureHumidityPressure
High64 °F (May 2, 2:00 PM)100% (Apr 20, 6:00 AM)30.41 "Hg (Apr 20, 6:00 AM)
Low21 °F (Apr 27, 5:00 AM)15% (Apr 27, 5:00 PM)29.60 "Hg (May 3, 2:00 PM)
Average42 °F60%30.12 "Hg
* Reported Apr 19 2:00 PM — May 4 2:00 PM, Thunder Bay, Weather by CustomWeather, © 2016

Note: Actual official high and low records may vary slightly from our data, if they occured in-between our weather recording intervals... More about our weather records

Advertising

Thunder Bay Weather History for the Previous 24 Hours

Scroll right to see more
 ConditionsComfort  
Time TempWeatherWind HumidityBarometerVisibility
2:00 PM
Wed, May 4
50 °FScattered clouds.10 mph50%29.99 "Hg20 mi
1:00 PM50 °FPartly sunny.12 mph47%29.99 "Hg20 mi
12:00 PM46 °FPartly sunny.12 mph53%29.99 "Hg20 mi
11:00 AM45 °FPartly sunny.8 mph57%29.98 "Hg20 mi
10:00 AM41 °FPartly sunny.8 mph61%29.98 "Hg20 mi
9:00 AM39 °FPartly sunny.13 mph65%29.96 "Hg20 mi
8:00 AM39 °FPartly sunny.5 mph65%29.94 "Hg20 mi
7:00 AM37 °FPassing clouds.3 mph70%29.92 "Hg20 mi
6:00 AM37 °FPassing clouds.8 mph70%29.90 "Hg15 mi
5:00 AM39 °FPassing clouds.6 mph75%29.88 "Hg15 mi
4:00 AM41 °FPassing clouds.8 mph70%29.87 "Hg15 mi
3:00 AM43 °FPassing clouds.9 mph61%29.85 "Hg15 mi
2:00 AM45 °FMostly cloudy.9 mph57%29.84 "Hg15 mi
1:00 AM45 °FPassing clouds.9 mph66%29.83 "Hg15 mi
12:00 AM43 °FPartly cloudy.6 mph71%29.82 "Hg15 mi
11:00 PM
Tue, May 3
43 °FPartly cloudy.6 mph71%29.82 "Hg15 mi
10:00 PM46 °FScattered clouds.5 mph62%29.82 "Hg15 mi
9:00 PM48 °FBroken clouds.9 mph58%29.81 "Hg20 mi
8:00 PM54 °FBroken clouds.12 mph47%29.77 "Hg20 mi
7:00 PM57 °FBroken clouds.16 mph41%29.72 "Hg20 mi
6:53 PM57 °FScattered clouds.20 mph39%29.72 "Hg20 mi
6:00 PM57 °FPartly sunny.18 mph41%29.68 "Hg20 mi
5:00 PM61 °FPartly sunny.21 mph31%29.65 "Hg20 mi
4:00 PM61 °FPartly sunny.16 mph31%29.64 "Hg20 mi
3:00 PM63 °FBroken clouds.16 mph30%29.61 "Hg20 mi
Weather by CustomWeather, © 2016

See weather overviewHow to use our weather pages